Weather History for Monterey, CA

Change the Weather History Date:

Thursday, November 15, 2012

  Actual Average Record
Temperature  
Mean Temperature 57 °F 55 °F  
Max Temperature 68 °F 64 °F 88 °F (2008)
Min Temperature 45 °F 46 °F 39 °F (1948)
Degree Days  
Heating Degree Days 8    
Month to date heating degree days 127  
Since 1 July heating degree days 802  
Cooling Degree Days 0    
Month to date cooling degree days 10  
Year to date cooling degree days 36  
Growing Degree Days 6 (Base 50)    
Moisture  
Dew Point 42 °F    
Average Humidity 60    
Maximum Humidity 86    
Minimum Humidity 34    
Precipitation  
Precipitation 0.00 in - 0.22 in (2003)
Month to date precipitation 0.70  
Year to date precipitation 9.03  
Since 1 July precipitation 1.38  
Sea Level Pressure  
Sea Level Pressure 30.03 in    
Wind  
Wind Speed 2 mph (NE)    
Max Wind Speed 9 mph    
Max Gust Speed 14 mph    
Visibility 10 miles    
Events      
T = Trace of Precipitation, MM = Missing Value Source: NWS Daily Summary

Daily Weather History Graph

Daily Weather History Graph

Search for Another Location

Airport:

Trip Planner

Search our weather history database for the weather conditions in past years. The results will help you decide how hot, cold, wet, or windy it might be!

Date:

Astronomy

Nov. 15, 2012 Rise Set
Actual Time 6:45 AM PST 4:58 PM PST
Civil Twilight 6:18 AM PST 5:25 PM PST
Nautical Twilight 5:46 AM PST 5:56 PM PST
Astronomical Twilight 5:16 AM PST 6:27 PM PST
Moon 8:45 AM PST (11/15) 6:57 PM PST (11/15)
Length of Visible Light 11h 07m
Length of Day
10h 12m
Waxing Crescent, 5% of the Moon is Illuminated
Nov 15
Waxing Crescent
Nov 20
First Quarter
Nov 28
Full
Dec 6
Last Quarter
Dec 13
New

Hourly Weather History & Observations

Time (PST) Temp. Windchill Dew Point Humidity Pressure Visibility Wind Dir Wind Speed Gust Speed Precip Events Conditions
12:54 AM 51.1 °F - 34.0 °F 52% 30.02 in 10.0 mi Calm Calm - N/A   Clear
1:54 AM 48.9 °F - 34.0 °F 56% 30.02 in 10.0 mi ESE 4.6 mph - N/A   Clear
2:54 AM 48.0 °F - 34.0 °F 58% 30.00 in 10.0 mi ESE 4.6 mph - N/A   Clear
3:54 AM 48.0 °F - 33.1 °F 56% 29.99 in 10.0 mi Calm Calm - N/A   Clear
4:54 AM 50.0 °F - 34.0 °F 54% 30.01 in 10.0 mi Calm Calm - N/A   Clear
5:54 AM 46.9 °F - 35.1 °F 63% 30.01 in 10.0 mi Calm Calm - N/A   Clear
6:54 AM 46.0 °F 44.8 °F 33.1 °F 61% 30.03 in 10.0 mi ESE 3.5 mph - N/A   Clear
8:54 AM 52.0 °F - 39.0 °F 61% 30.05 in 10.0 mi Calm Calm - N/A   Clear
9:54 AM 55.0 °F - 37.9 °F 53% 30.06 in 10.0 mi NNW 3.5 mph - N/A   Clear
10:54 AM 57.9 °F - 39.0 °F 49% 30.05 in 10.0 mi Calm Calm - N/A   Clear
11:54 AM 60.1 °F - 46.0 °F 60% 30.04 in 10.0 mi West 3.5 mph - N/A   Clear
12:54 PM 64.9 °F - 45.0 °F 48% 30.02 in 10.0 mi Calm Calm - N/A   Clear
1:54 PM 66.9 °F - 37.0 °F 33% 30.00 in 10.0 mi NNW 5.8 mph - N/A   Clear
2:54 PM 64.9 °F - 43.0 °F 45% 30.00 in 10.0 mi NW 4.6 mph - N/A   Clear
3:54 PM 57.9 °F - 51.1 °F 78% 30.02 in 10.0 mi NNW 3.5 mph - N/A   Clear
4:54 PM 57.9 °F - 48.9 °F 72% 30.01 in 10.0 mi Calm Calm - N/A   Clear
5:54 PM 57.9 °F - 45.0 °F 62% 30.04 in 10.0 mi Calm Calm - N/A   Clear
6:54 PM 57.9 °F - 45.0 °F 62% 30.04 in 10.0 mi East 6.9 mph - N/A   Clear
7:54 PM 57.0 °F - 45.0 °F 64% 30.05 in 10.0 mi SW 4.6 mph - N/A   Clear
8:54 PM 57.0 °F - 48.9 °F 74% 30.04 in 10.0 mi Calm Calm - N/A   Scattered Clouds
9:54 PM 54.0 °F - 48.0 °F 80% 30.05 in 10.0 mi ENE 4.6 mph - N/A   Mostly Cloudy
10:54 PM 55.9 °F - 51.1 °F 84% 30.05 in 10.0 mi Calm Calm - N/A   Mostly Cloudy
11:54 PM 54.0 °F - 50.0 °F 86% 30.05 in 10.0 mi SE 4.6 mph - N/A   Mostly Cloudy